GW2259 Weather Reports


Display with metric or nautical units.
time (UTC)temp
F
wind
direction
speed
MPH
gust
MPH
rain 1hr
in
rain 24hr
in
rain mn
in
humidity
%
barometer
mb
20260505124533 68 243 7.0 11.0 0.00 0.00 0.00 88 1007.7
20260505123042 68 229 6.0 12.0 0.00 0.00 0.00 89 1007.5
20260505121537 67 216 5.0 9.0 0.00 0.00 0.00 90 1007.5
20260505120048 66 219 5.0 8.0 0.00 0.00 0.00 90 1007.1
20260505114535 66 238 4.0 7.0 0.00 0.00 0.00 90 1006.8
20260505113031 66 216 4.0 9.0 0.00 0.00 0.00 90 1006.7
20260505111536 66 214 4.0 6.0 0.00 0.00 0.00 89 1006.7
20260505101537 66 235 4.0 8.0 0.00 0.00 0.00 88 1006.7
20260505100037 66 237 3.0 6.0 0.00 0.00 0.00 88 1006.7
20260505094630 66 220 3.0 6.0 0.00 0.00 0.00 88 1007.0
20260505093032 66 230 3.0 7.0 0.00 0.00 0.00 87 1007.1
20260505091537 65 219 3.0 5.0 0.00 0.00 0.00 88 1007.1
20260505090035 65 222 1.0 3.0 0.00 0.00 0.00 88 1007.2
20260505084552 65 224 1.0 3.0 0.00 0.00 0.00 87 1007.3
20260505083057 66 236 1.0 4.0 0.00 0.00 0.00 86 1007.4
20260505081552 66 215 1.0 5.0 0.00 0.00 0.00 85 1007.5
20260505080043 67 234 3.0 7.0 0.00 0.00 0.00 84 1007.6
20260505074535 67 198 3.0 6.0 0.00 0.00 0.00 84 1007.7
20260505073048 67 211 2.0 6.0 0.00 0.00 0.00 84 1008.0
20260505071545 67 194 1.0 6.0 0.00 0.00 0.00 83 1008.3
20260505070042 67 215 3.0 8.0 0.00 0.00 0.00 83 1008.2
20260505064536 68 221 4.0 9.0 0.00 0.00 0.00 82 1008.3
20260505063038 68 197 5.0 9.0 0.00 0.00 0.00 81 1008.5
20260505061538 68 212 2.0 7.0 0.00 0.00 0.00 81 1008.5
20260505060054 68 214 3.0 7.0 0.00 0.00 0.00 81 1008.6
20260505054536 69 210 4.0 7.0 0.00 0.00 0.00 80 1009.0
20260505053037 69 211 4.0 7.0 0.00 0.00 0.00 80 1008.9
20260505051534 69 221 3.0 8.0 0.00 0.00 0.00 80 1008.9
20260505041548 70 198 5.0 10.0 0.00 0.00 0.00 78 1008.9
20260505040046 70 186 4.0 9.0 0.00 0.00 0.00 78 1009.0
20260505034537 70 236 6.0 11.0 0.00 0.00 0.00 78 1009.1
20260505033034 70 201 3.0 6.0 0.00 0.00 0.00 78 1008.8
20260505031535 70 200 2.0 7.0 0.00 0.00 0.00 77 1008.9
20260505030044 71 210 2.0 7.0 0.00 0.00 0.00 76 1008.9
20260505024535 71 133 3.0 8.0 0.00 0.00 0.00 75 1008.8
20260505023036 72 214 4.0 8.0 0.00 0.00 0.00 73 1008.6
20260505021536 73 195 5.0 11.0 0.00 0.00 0.00 71 1008.2
20260505020039 74 214 6.0 11.0 0.00 0.00 0.00 68 1008.2
20260505014548 75 203 6.0 12.0 0.00 0.00 0.00 67 1008.1
20260505013047 75 207 5.0 11.0 0.00 0.00 0.00 66 1007.8
20260505011541 76 179 5.0 11.0 0.00 0.00 0.00 65 1007.6
20260505010043 77 136 7.0 11.0 0.00 0.00 0.00 64 1007.7
20260505004546 79 216 6.0 11.0 0.00 0.00 0.00 61 1007.8
20260505003052 82 214 7.0 13.0 0.00 0.00 0.00 57 1007.9
20260505001537 84 196 7.0 13.0 0.00 0.00 0.00 54 1008.1
20260505000037 84 228 8.0 14.0 0.00 0.00 0.00 53 1008.1
20260504234535 85 198 8.0 13.0 0.00 0.00 0.00 53 1007.9
20260504233036 85 199 8.0 16.0 0.00 0.00 0.00 53 1008.0
20260504231533 84 193 7.0 15.0 0.00 0.00 0.00 54 1008.1
20260504230037 85 190 9.0 17.0 0.00 0.00 0.00 53 1008.1
20260504224535 85 193 10.0 17.0 0.00 0.00 0.00 53 1008.1
20260504223046 85 204 9.0 16.0 0.00 0.00 0.00 52 1008.2
20260504221535 85 184 12.0 18.0 0.00 0.00 0.00 51 1008.3
20260504220035 85 160 9.0 18.0 0.00 0.00 0.00 51 1008.3
20260504214535 84 136 8.0 17.0 0.00 0.00 0.00 52 1008.6
20260504213036 84 210 10.0 16.0 0.00 0.00 0.00 52 1008.9
20260504211546 84 195 8.0 17.0 0.00 0.00 0.00 52 1009.2
20260504210041 84 225 8.0 16.0 0.00 0.00 0.00 53 1009.3
20260504204533 83 174 8.0 17.0 0.00 0.00 0.00 54 1009.3
20260504203032 83 229 8.0 14.0 0.00 0.00 0.00 53 1009.8
20260504201536 82 186 8.0 18.0 0.00 0.00 0.00 53 1010.1
20260504200036 82 191 6.0 14.0 0.00 0.00 0.00 54 1010.4
20260504194537 81 184 9.0 18.0 0.00 0.00 0.00 54 1010.6
20260504193039 81 203 8.0 15.0 0.00 0.00 0.00 55 1011.0
20260504191542 80 229 8.0 15.0 0.00 0.00 0.00 56 1011.3
20260504190044 79 231 9.0 16.0 0.00 0.00 0.00 57 1011.4
20260504184546 78 199 9.0 16.0 0.00 0.00 0.00 58 1011.5
20260504183035 78 215 10.0 16.0 0.00 0.00 0.00 57 1011.6
20260504181536 77 194 8.0 16.0 0.00 0.00 0.00 61 1011.7
20260504180039 77 176 8.0 17.0 0.00 0.00 0.00 60 1011.8
20260504174537 76 211 8.0 20.0 0.00 0.00 0.00 63 1012.2
20260504173035 75 226 8.0 17.0 0.00 0.00 0.00 63 1012.3
20260504171537 75 204 10.0 16.0 0.00 0.00 0.00 64 1012.4